Location: Dennis Manor
(64.8292°N, 147.5397°W)
Time: 00:40:54
(UTC+00:00)

N. Korean satellite - Visible Passes

Search period start: 23 October 2020 00:00
Search period end: 02 November 2020 00:00
Orbit: 453 x 505 km, 97.2° (Epoch: 22 October)

Date Brightness Start Highest point End Pass type
(mag) Time Alt. Az. Time Alt. Az. Time Alt. Az.
23 Oct 10.0 03:46:35 10° WSW 03:48:39 15° W 03:50:43 10° NW visible
23 Oct 8.8 14:58:39 10° NNE 15:01:43 28° E 15:04:43 10° SSE visible
24 Oct 9.5 03:19:25 10° SW 03:22:15 22° W 03:25:05 10° NW visible
24 Oct 9.6 14:32:51 10° NE 14:35:21 18° E 14:37:49 10° SE visible
24 Oct 6.4 16:05:42 10° NNE 16:09:12 84° WNW 16:12:37 10° SSW visible
25 Oct 8.6 02:52:40 10° SSW 02:55:56 33° W 02:59:11 10° NNW visible
25 Oct 10.0 14:07:28 10° ENE 14:08:54 12° E 14:10:20 10° ESE visible
25 Oct 7.1 15:39:35 10° NNE 15:43:02 59° ESE 15:46:25 10° S visible
26 Oct 10.3 04:02:41 10° W 04:03:50 11° W 04:05:00 10° WNW visible
26 Oct 8.2 15:13:32 10° NNE 15:16:47 36° E 15:19:59 10° SSE visible
27 Oct 9.8 03:34:59 10° SW 03:37:23 17° W 03:39:47 10° NW visible
27 Oct 9.1 14:47:37 10° NE 14:50:27 23° E 14:53:16 10° SSE visible
27 Oct 6.4 16:20:42 10° NNE 16:24:09 64° WNW 16:27:33 10° SSW visible
28 Oct 9.2 03:08:00 10° SSW 03:11:01 26° W 03:14:00 10° NW visible
28 Oct 9.8 14:21:54 10° NE 14:24:03 15° E 14:26:10 10° SE visible
28 Oct 6.6 15:54:32 10° NNE 15:58:00 79° ESE 16:01:26 10° SSW visible
29 Oct 8.2 02:41:21 10° S 02:44:42 40° W 02:48:02 10° NNW visible
29 Oct 7.6 15:28:25 10° NNE 15:31:48 48° ESE 15:35:07 10° S visible
30 Oct 10.0 03:50:44 10° WSW 03:52:30 13° W 03:54:16 10° NW visible
30 Oct 8.6 15:02:24 10° NNE 15:05:29 30° E 15:08:34 10° SSE visible
30 Oct 6.7 16:35:41 10° N 16:39:02 48° WNW 16:42:21 10° SW visible
31 Oct 9.6 03:23:24 10° SW 03:26:04 20° W 03:28:43 10° NW visible
31 Oct 9.4 14:36:32 10° NE 14:39:08 19° E 14:41:41 10° SE visible
31 Oct 6.4 16:09:28 10° NNE 16:12:55 78° WNW 16:16:21 10° SSW visible
01 Nov 8.7 02:56:34 10° SSW 02:59:42 30° W 03:02:50 10° NNW visible
01 Nov 10.0 14:11:01 10° NE 14:12:40 13° E 14:14:18 10° ESE visible
01 Nov 6.9 15:43:18 10° NNE 15:46:44 64° ESE 15:50:09 10° S visible
